User: anonymous   Login
Location: Brede
(50.9167°N, 0.6000°E)
Time: 13:07:40
(UTC+00:00)
Language:

CZ-2D R/B - Orbit

View from above orbital plane
View from above orbital plane
View from above satellite
View from above satellite

Ground track
Ground track

The orbit data is extracted from the following two-line orbital elements,

1 37932U 11068C   20294.61591638 +.00000026 +00000-0 +31101-4 0  9994
2 37932 098.6648 228.5679 0038137 102.0970 070.3873 14.22047185462898
Epoch (UTC): 20 October 2020 14:46:55
Eccentricity: 0.0038137
inclination: 98.6648°
perigee height: 791 km
apogee height: 846 km
right ascension of ascending node: 228.5679°
argument of perigee: 102.0970°
revolutions per day: 14.22047185
mean anomaly at epoch: 70.3873°
orbit number at epoch: 46289

The dashed part of the orbit path shows where the satellite is in the earth's shadow,  

DLR